LNR023 UDYZ-LFBD

Flight info

Callsign LNR023
Flight time N/A
Altitude 34000
Route INDUR UB374 ERZ UL746 GOKPA UM10 TIVUG UL852 NEGEM Q6 GRN/N0452F360 N605 NISVA DCT GORAV DCT VELIT DCT XAMIT/N0460F350 DCT NIKMA/N0456F370 DCT MIRSA/N0458F360 A3 STP/N0456F370 DCT PADKO UM984 DIVKO/N0456F360 DCT YACIM DCT SECHE
Aircraft A320/M-SDE3FGHIRWY/LB1

Departure

Time 2026-05-07 08:37
Airport Zvartnots International Airport (UDYZ)

Arrival

Time N/A
Airport Bordeaux–Mérignac Airport (LFBD)
Time Latitude Longitude Altitude Speed Heading
2026-05-07 08:16 40.15098 44.40064 2821 ft 0 kts
2026-05-07 08:29 40.15096 44.40064 2820 ft 2 kts
2026-05-07 08:30 40.15071 44.40063 2820 ft 4 kts
2026-05-07 08:30 40.15044 44.40063 2822 ft 4 kts
2026-05-07 08:30 40.15017 44.40063 2822 ft 4 kts 357°
2026-05-07 08:30 40.14994 44.40065 2820 ft 1 kts 354°
2026-05-07 08:32 40.14991 44.40052 2820 ft 2 kts 237°
2026-05-07 08:33 40.14936 44.40027 2823 ft 16 kts 181°
2026-05-07 08:33 40.14825 44.40029 2822 ft 16 kts 176°
2026-05-07 08:33 40.14742 44.39975 2822 ft 15 kts 248°
2026-05-07 08:33 40.14733 44.39784 2818 ft 24 kts 270°
2026-05-07 08:34 40.14729 44.39558 2818 ft 26 kts 269°
2026-05-07 08:34 40.14728 44.39288 2815 ft 32 kts 269°
2026-05-07 08:34 40.14727 44.39002 2814 ft 31 kts 270°
2026-05-07 08:34 40.14726 44.38723 2814 ft 30 kts 269°
2026-05-07 08:35 40.14724 44.38450 2812 ft 30 kts 269°
2026-05-07 08:35 40.14723 44.38164 2809 ft 34 kts 270°
2026-05-07 08:35 40.14722 44.37858 2805 ft 34 kts 270°
2026-05-07 08:35 40.14721 44.37562 2802 ft 21 kts 271°
2026-05-07 08:36 40.14762 44.37404 2794 ft 16 kts 272°
2026-05-07 08:36 40.14726 44.37385 2792 ft 7 kts 132°
2026-05-07 08:36 40.14720 44.37519 2802 ft 21 kts 89°
2026-05-07 08:36 40.14723 44.37970 2807 ft 84 kts 90°
2026-05-07 08:37 40.14728 44.39001 2814 ft 141 kts 90°
2026-05-07 08:37 40.14738 44.40491 2867 ft 181 kts 89°
2026-05-07 08:37 40.14742 44.42113 3600 ft 176 kts 90°
2026-05-07 08:37 40.14753 44.43721 4297 ft 178 kts 89°
2026-05-07 08:38 40.14588 44.45351 4729 ft 190 kts 120°
2026-05-07 08:38 40.13591 44.46474 5036 ft 199 kts 167°
2026-05-07 08:38 40.12208 44.46303 5270 ft 212 kts 210°
2026-05-07 08:38 40.11197 44.44830 5435 ft 234 kts 249°
2026-05-07 08:39 40.10915 44.42609 5584 ft 263 kts 267°
2026-05-07 08:39 40.10906 44.40200 6152 ft 273 kts 271°
2026-05-07 08:39 40.10981 44.37701 6882 ft 276 kts 272°
2026-05-07 08:39 40.11069 44.35190 7641 ft 278 kts 271°
2026-05-07 08:40 40.11144 44.32649 8392 ft 280 kts 271°
2026-05-07 08:40 40.11200 44.30092 9163 ft 283 kts 270°
2026-05-07 08:40 40.11241 44.27515 9919 ft 285 kts 269°
2026-05-07 08:40 40.11272 44.24883 10341 ft 300 kts 269°
2026-05-07 08:41 40.11294 44.22057 10484 ft 323 kts 269°
2026-05-07 08:41 40.11310 44.19020 10609 ft 344 kts 269°
2026-05-07 08:41 40.11327 44.15798 10757 ft 363 kts 269°
2026-05-07 08:41 40.11348 44.12461 11227 ft 370 kts 269°
2026-05-07 08:42 40.11371 44.09077 11834 ft 373 kts 269°
2026-05-07 08:42 40.11393 44.05683 12434 ft 376 kts 269°
2026-05-07 08:42 40.11414 44.02236 13028 ft 379 kts 269°
2026-05-07 08:42 40.11434 43.98814 13596 ft 383 kts 269°
2026-05-07 08:43 40.11452 43.95311 14130 ft 386 kts 269°
2026-05-07 08:43 40.11470 43.91795 14643 ft 388 kts 269°
2026-05-07 08:43 40.11487 43.88261 15153 ft 390 kts 269°
2026-05-07 08:43 40.11500 43.84709 15659 ft 392 kts 269°
2026-05-07 08:44 40.11511 43.81132 16175 ft 394 kts 269°
2026-05-07 08:44 40.11522 43.77537 16678 ft 396 kts 269°
2026-05-07 08:44 40.11532 43.73925 17167 ft 398 kts 269°
2026-05-07 08:44 40.11541 43.70311 17639 ft 400 kts 268°
2026-05-07 08:45 40.11547 43.66659 18115 ft 402 kts 268°
2026-05-07 08:45 40.11477 43.63036 18558 ft 404 kts 266°
2026-05-07 08:45 40.11313 43.59356 18981 ft 405 kts 264°
2026-05-07 08:45 40.11094 43.55680 19411 ft 406 kts 264°
2026-05-07 08:46 40.10854 43.52000 19838 ft 407 kts 263°
2026-05-07 08:46 40.10617 43.48304 20276 ft 408 kts 264°
2026-05-07 08:46 40.10389 43.44601 20690 ft 408 kts 264°
2026-05-07 08:46 40.10172 43.40904 21086 ft 410 kts 264°
2026-05-07 08:47 40.09962 43.37178 21548 ft 411 kts 264°
2026-05-07 08:47 40.09760 43.33450 21914 ft 412 kts 264°
2026-05-07 08:47 40.09558 43.29695 22296 ft 413 kts 264°
2026-05-07 08:47 40.09356 43.25956 22654 ft 414 kts 263°
2026-05-07 08:48 40.09150 43.22193 23054 ft 415 kts 263°
2026-05-07 08:48 40.08941 43.18470 23382 ft 418 kts 264°
2026-05-07 08:48 40.08724 43.14665 23571 ft 422 kts 264°
2026-05-07 08:48 40.08504 43.10828 23837 ft 425 kts 264°
2026-05-07 08:49 40.08281 43.06964 24096 ft 426 kts 264°
2026-05-07 08:49 40.08056 43.03089 24368 ft 428 kts 263°
2026-05-07 08:49 40.07830 42.99206 24654 ft 428 kts 263°
2026-05-07 08:49 40.07603 42.95350 24946 ft 429 kts 263°
2026-05-07 08:50 40.07373 42.91455 25240 ft 430 kts 263°
2026-05-07 08:50 40.07142 42.87563 25508 ft 430 kts 263°
2026-05-07 08:50 40.06906 42.83640 25787 ft 431 kts 263°
2026-05-07 08:50 40.06669 42.79727 26061 ft 432 kts 263°
2026-05-07 08:51 40.06437 42.75868 26315 ft 433 kts 263°
2026-05-07 08:51 40.06201 42.71899 26597 ft 432 kts 263°
2026-05-07 08:51 40.05972 42.68029 26874 ft 433 kts 263°
2026-05-07 08:51 40.05736 42.64105 27132 ft 434 kts 263°
2026-05-07 08:52 40.05496 42.60184 27464 ft 432 kts 263°
2026-05-07 08:52 40.05254 42.56263 27846 ft 430 kts 263°
2026-05-07 08:52 40.05016 42.52381 28240 ft 428 kts 263°
2026-05-07 08:52 40.04859 42.49819 28499 ft 426 kts 263°
2026-05-07 08:53 40.04623 42.45973 28899 ft 424 kts 262°
2026-05-07 08:53 40.04303 42.40896 29433 ft 420 kts 262°
2026-05-07 08:53 40.04049 42.37107 29833 ft 418 kts 262°
2026-05-07 08:53 40.03873 42.34566 30110 ft 416 kts 262°
2026-05-07 08:54 40.03610 42.30808 30456 ft 414 kts 262°
2026-05-07 08:54 40.03346 42.27059 30710 ft 414 kts 262°
2026-05-07 08:54 40.03082 42.23318 30944 ft 414 kts 262°
2026-05-07 08:54 40.02821 42.19616 31166 ft 415 kts 262°
2026-05-07 08:55 40.02555 42.15859 31297 ft 418 kts 262°
2026-05-07 08:55 40.02289 42.12076 31486 ft 419 kts 262°
2026-05-07 08:55 40.02024 42.08287 31716 ft 419 kts 262°
2026-05-07 08:55 40.01757 42.04498 31952 ft 419 kts 262°
2026-05-07 08:56 40.01489 42.00701 32186 ft 419 kts 262°
2026-05-07 08:56 40.01223 41.96911 32425 ft 420 kts 262°
2026-05-07 08:56 40.00954 41.93121 32651 ft 420 kts 262°
2026-05-07 08:56 40.00682 41.89322 32885 ft 420 kts 262°
2026-05-07 08:57 40.00407 41.85521 33112 ft 420 kts 262°
2026-05-07 08:57 40.00131 41.81719 33346 ft 420 kts 262°
2026-05-07 08:57 39.99852 41.77924 33587 ft 420 kts 262°
2026-05-07 08:57 39.99576 41.74181 33819 ft 420 kts 262°
2026-05-07 08:58 39.99301 41.70387 34050 ft 420 kts 262°
2026-05-07 08:58 39.99029 41.66577 34146 ft 422 kts 262°
2026-05-07 08:58 39.98485 41.58935 34160 ft 424 kts 262°
2026-05-07 08:59 39.97935 41.51274 34160 ft 424 kts 262°
2026-05-07 08:59 39.97379 41.43628 34161 ft 423 kts 262°
2026-05-07 09:00 39.96812 41.35976 34169 ft 423 kts 262°
2026-05-07 09:00 39.96247 41.28385 34165 ft 423 kts 262°
2026-05-07 09:01 39.96185 41.20699 34198 ft 427 kts 276°
2026-05-07 09:01 39.97970 41.13265 34182 ft 434 kts 289°
2026-05-07 09:02 40.00246 41.05955 34181 ft 434 kts 288°
2026-05-07 09:02 40.02489 40.98666 34175 ft 435 kts 288°
2026-05-07 09:03 40.04741 40.91319 34179 ft 436 kts 289°
2026-05-07 09:03 40.06998 40.83948 34166 ft 437 kts 289°
2026-05-07 09:04 40.09256 40.76554 34160 ft 438 kts 289°
2026-05-07 09:04 40.11505 40.69149 34162 ft 439 kts 289°
2026-05-07 09:05 40.13760 40.61724 34160 ft 439 kts 289°
2026-05-07 09:05 40.16005 40.54333 34161 ft 440 kts 289°
2026-05-07 09:06 40.18254 40.46883 34165 ft 441 kts 289°
2026-05-07 09:06 40.20502 40.39424 34169 ft 441 kts 289°
2026-05-07 09:07 40.22752 40.31958 34164 ft 441 kts 289°
2026-05-07 09:07 40.25000 40.24465 34166 ft 442 kts 289°
2026-05-07 09:08 40.27248 40.16954 34169 ft 442 kts 289°
2026-05-07 09:08 40.29482 40.09448 34176 ft 442 kts 290°
2026-05-07 09:09 40.31699 40.01950 34167 ft 443 kts 290°
2026-05-07 09:09 40.33924 39.94412 34162 ft 444 kts 290°
2026-05-07 09:10 40.36155 39.86858 34164 ft 444 kts 290°
2026-05-07 09:10 40.38391 39.79284 34176 ft 445 kts 290°
2026-05-07 09:11 40.40621 39.71700 34172 ft 445 kts 290°
2026-05-07 09:11 40.42844 39.64107 34176 ft 446 kts 290°
2026-05-07 09:12 40.45047 39.56543 34166 ft 446 kts 290°
2026-05-07 09:12 40.47253 39.48914 34161 ft 447 kts 290°
2026-05-07 09:13 40.49458 39.41275 34160 ft 447 kts 290°
2026-05-07 09:13 40.51655 39.33637 34162 ft 447 kts 290°
2026-05-07 09:14 40.53853 39.25984 34160 ft 447 kts 290°
2026-05-07 09:14 40.56046 39.18361 34166 ft 447 kts 290°
2026-05-07 09:15 40.58236 39.10701 34165 ft 447 kts 290°
2026-05-07 09:15 40.60416 39.03023 34175 ft 447 kts 290°
2026-05-07 09:16 40.62580 38.95393 34179 ft 448 kts 290°
2026-05-07 09:16 40.64767 38.87657 34177 ft 448 kts 290°
2026-05-07 09:17 40.66906 38.79964 34182 ft 448 kts 290°
2026-05-07 09:17 40.69029 38.72261 34185 ft 448 kts 290°
2026-05-07 09:18 40.71156 38.64548 34190 ft 448 kts 290°
2026-05-07 09:18 40.73287 38.56827 34191 ft 448 kts 290°
2026-05-07 09:19 40.75391 38.49149 34193 ft 448 kts 290°
2026-05-07 09:19 40.77503 38.41414 34200 ft 448 kts 290°
2026-05-07 09:20 40.79609 38.33680 34200 ft 448 kts 290°
2026-05-07 09:20 40.81720 38.25934 34206 ft 448 kts 290°
2026-05-07 09:21 40.83823 38.18184 34209 ft 448 kts 290°
2026-05-07 09:21 40.85910 38.10432 34220 ft 448 kts 290°
2026-05-07 09:22 40.87998 38.02671 34203 ft 448 kts 290°
2026-05-07 09:22 40.90086 37.94899 34208 ft 449 kts 290°
2026-05-07 09:23 40.92167 37.87114 34202 ft 449 kts 290°
2026-05-07 09:23 40.94252 37.79305 34190 ft 449 kts 290°
2026-05-07 09:24 40.96329 37.71503 34179 ft 450 kts 290°
2026-05-07 09:24 40.98389 37.63737 34177 ft 450 kts 290°
2026-05-07 09:25 41.00461 37.55885 34171 ft 451 kts 290°
2026-05-07 09:25 41.02522 37.48044 34168 ft 451 kts 290°
2026-05-07 09:26 41.04589 37.40180 34168 ft 451 kts 290°
2026-05-07 09:26 41.06631 37.32368 34170 ft 451 kts 290°
2026-05-07 09:27 41.08680 37.24504 34169 ft 451 kts 290°
2026-05-07 09:28 41.11755 37.12672 34171 ft 451 kts 291°
2026-05-07 09:28 41.13800 37.04797 34180 ft 451 kts 291°
2026-05-07 09:29 41.15831 36.96922 34180 ft 451 kts 291°
2026-05-07 09:29 41.17854 36.89036 34175 ft 451 kts 291°
2026-05-07 09:30 41.19864 36.81202 34177 ft 451 kts 291°
2026-05-07 09:30 41.21879 36.73319 34183 ft 451 kts 291°
2026-05-07 09:31 41.23891 36.65414 34189 ft 451 kts 290°
2026-05-07 09:31 41.25889 36.57518 34182 ft 451 kts 291°
2026-05-07 09:32 41.27886 36.49652 34176 ft 450 kts 291°
2026-05-07 09:32 41.29904 36.41767 34179 ft 450 kts 291°
2026-05-07 09:33 41.31924 36.33861 34180 ft 450 kts 291°
2026-05-07 09:33 41.33587 36.27284 34171 ft 450 kts 291°
2026-05-07 09:34 41.35583 36.19380 34178 ft 450 kts 291°
2026-05-07 09:34 41.37574 36.11497 34183 ft 449 kts 291°
2026-05-07 09:35 41.39558 36.03604 34180 ft 449 kts 291°
2026-05-07 09:35 41.41534 35.95699 34174 ft 449 kts 290°
2026-05-07 09:36 41.43509 35.87802 34179 ft 448 kts 290°
2026-05-07 09:36 41.45460 35.79957 34183 ft 448 kts 290°
2026-05-07 09:37 41.47417 35.72058 34180 ft 448 kts 290°
2026-05-07 09:37 41.49370 35.64149 34178 ft 448 kts 290°
2026-05-07 09:38 41.51318 35.56248 34174 ft 448 kts 290°
2026-05-07 09:38 41.53259 35.48351 34175 ft 448 kts 290°
2026-05-07 09:39 41.55184 35.40476 34174 ft 448 kts 290°
2026-05-07 09:39 41.57116 35.32551 34164 ft 447 kts 290°
2026-05-07 09:40 41.59030 35.24653 34170 ft 446 kts 290°
2026-05-07 09:40 41.60936 35.16774 34188 ft 445 kts 290°
2026-05-07 09:41 41.62826 35.08958 34186 ft 444 kts 290°
2026-05-07 09:41 41.64714 35.01102 34174 ft 442 kts 291°
2026-05-07 09:42 41.66591 34.93273 34174 ft 441 kts 291°
2026-05-07 09:42 41.68461 34.85456 34169 ft 440 kts 291°
2026-05-07 09:43 41.70314 34.77644 34170 ft 440 kts 291°
2026-05-07 09:43 41.72153 34.69867 34160 ft 439 kts 292°
2026-05-07 09:44 41.73974 34.62071 34164 ft 439 kts 289°
2026-05-07 09:44 41.74609 34.53896 34158 ft 448 kts 275°
2026-05-07 09:45 41.74586 34.45548 34153 ft 448 kts 275°
2026-05-07 09:45 41.74564 34.37197 34131 ft 448 kts 275°
2026-05-07 09:46 41.74533 34.28849 34137 ft 447 kts 275°
2026-05-07 09:46 41.74497 34.20517 34129 ft 447 kts 275°
2026-05-07 09:47 41.74452 34.12255 34153 ft 446 kts 274°
2026-05-07 09:47 41.74406 34.03950 34153 ft 446 kts 274°
2026-05-07 09:48 41.74360 33.95597 34137 ft 445 kts 274°
2026-05-07 09:48 41.74301 33.87348 34147 ft 445 kts 274°
2026-05-07 09:49 41.74233 33.79055 34151 ft 444 kts 274°
2026-05-07 09:49 41.74165 33.70831 34152 ft 444 kts 274°
2026-05-07 09:50 41.74092 33.62566 34148 ft 444 kts 274°
2026-05-07 09:50 41.74008 33.54293 34126 ft 443 kts 273°
2026-05-07 09:51 41.73914 33.46040 34137 ft 442 kts 273°
2026-05-07 09:51 41.73815 33.37799 34139 ft 442 kts 273°
2026-05-07 09:52 41.73716 33.29564 34152 ft 442 kts 273°
2026-05-07 09:52 41.73619 33.21387 34153 ft 442 kts 273°
2026-05-07 09:53 41.73508 33.13169 34134 ft 441 kts 272°
2026-05-07 09:53 41.73483 33.04952 34141 ft 438 kts 279°
2026-05-07 09:54 41.74834 32.97108 34147 ft 430 kts 291°
2026-05-07 09:54 41.76711 32.89535 34154 ft 431 kts 291°
2026-05-07 09:55 41.78584 32.81889 34153 ft 431 kts 291°
2026-05-07 09:55 41.80445 32.74244 34165 ft 430 kts 291°
2026-05-07 09:56 41.82300 32.66622 34170 ft 430 kts 291°
2026-05-07 09:56 41.84140 32.59034 34160 ft 429 kts 291°
2026-05-07 09:57 41.85976 32.51421 34170 ft 429 kts 291°
2026-05-07 09:57 41.87812 32.43786 34163 ft 429 kts 291°
2026-05-07 09:58 41.89632 32.36154 34167 ft 428 kts 291°